Tracking 18984 objects as of 24-Feb-2018
HD Live streaming from Space Station
objects crossing your sky now

FENGYUN 1C DEB

Track FENGYUN 1C DEB now!
10-day predictions


NORAD ID: 31542
Int'l Code: 1999-025BYH
Perigee: 823.9 km
Apogee: 900.4 km
Inclination: 99.0 °
Period: 102.0 minutes
Semi major axis: 7233 km
RCS: 0.0019 m2 (small)
Launch date: May 10, 1999
Source: People's Republic of China (PRC)
Launch site: Taiyaun Space Center, China (TSC)

Note: This is SATELLITE DEBRIS
aabbcc
Your satellite tracking list
Your tracking list is empty




NASA's NSSDC Master Catalog

Two Line Element Set (TLE):
1 31542U 99025BYH 18053.54955549 +.00000497 +00000-0 +29620-3 0  9995
2 31542 098.9707 095.1347 0052888 033.5457 326.9045 14.11280312556473
Source of the keplerian elements: AFSPC